Weather in Chincha Alta

Peru     13°25′31″S   76°08′03″W
temp.,
°C
wind,
m/s
gust,
m/s
humid.,
%
clouds,
%
prec.,
mm/h
press.,
hPa
HPBL,
m
5 march, fri
fri501:00+21nnw118596 0.0 101433
04:00+21nw2283100 0.0 101331
07:00+21nw128494 0.0 101435
10:00+22wnw228248 0.0 1014114
13:00+22sw458426 0.0 1012174
16:00+21sw448815 0.0 1011197
19:00+21wsw229128 0.0 101386
22:00+21nw1191100 0.0 101561
6 march, sat
sat601:00+21nw0190100 0.0 101433
04:00+21nw1290100 0.0 101329
07:00+21n2288100 0.0 101436
10:00+21wnw2286100 0.0 1014107
13:00+22sw458755 0.0 1011190
16:00+22sw458524 0.0 1011165
19:00+21sw238816 0.0 101367
22:00+21nnw118867 0.0 101538
7 march, sun
sun701:00+21nw118883 0.0 101527
04:00+21nnw2288100 0.0 101329
07:00+21nnw1189100 0.0 101435
10:00+22w228286 0.0 1015122
13:00+22sw458688 0.0 1013158
16:00+22sw458611 0.0 1011169
19:00+21sw238910 0.0 101370
22:00+21nnw129076 0.0 101540
8 march, mon
mon801:00+21nnw349059 0.0 101556
04:00+21n449155 0.0 101385
07:00+21nnw229278 0.0 101564
10:00+21nw449162 0.0 1015159
13:00+21wnw338870 0.0 1013140
16:00+22w2385100 0.0 1011174
19:00+22nw1288100 0.0 101360
22:00+21nnw349095 0.0 101683
9 march, tue
tue901:00+21n339097 0.0 101551
04:00+21n338999 0.0 101452
07:00+21nnw348999 0.0 101566
10:00+21nw3388100 0.0 1016102
13:00+21w348699 0.0 1013200
16:00+21wsw3487100 0.0 1012200
19:00+21wsw119099 0.0 101439
22:00+21nnw228837 0.0 101741